sat.trackr.live / text

‹ back to catalog

YAOGAN-40 01A

NORAD 57830 · 2023-139A

PAYLOAD ACTIVE UNKNOWN

§ Identity

Operator
Country
PRC
Launch date
2023-09-10
Launch site
TAISC
Launch vehicle
Mass (kg)
RCS (m²)

External: N2YO · Heavens-Above · Gunter

§ Orbital elements

Epoch: 2026-05-25T04:48:06.446304Z

Period
101.95 min
Inclination
85.9899°
Eccentricity
0.0001833
Mean motion
14.12442320 rev/d
Perigee alt
849.7 km
Apogee alt
852.4 km
Semi-major
7,229.2 km
B*
4.6573e-5
RAAN
270.2684°
Arg perigee
97.7514°
Mean anomaly
262.3877°
Rev number
13,945

§ Raw data

YAOGAN-40 01A1 57830U 23139A   26145.20007461  .00000105  00000+0  46573-4 0  99932 57830  85.9899 270.2684 0001833  97.7514 262.3877 14.12442320139450

JSON: /api/v1/satellites/57830 · /tle

For live sub-satellite position, see the globe view (requires WebGL).

§ Visibility from observer

Set your observer location to see the next 7 days of passes ≥ 10°. The values pass through the URL so the page stays shareable.

No JS? Fill the form by hand. The geolocation button needs JavaScript.